Regional Weather Roundup
Issued by NWS

Home | Current Version | Previous Version | Text Only | Print | Product List | Glossary On
Versions: 1 2 3 4 5 6 7 8 9 10 11 12 13 14 15 16 17 18 19 20 21 22 23 24 25 26 27 28 29 30 31 32 33 34 35 36 37 38 39 40 41 42 43 44 45 46 47 48 49 50
000
ASUS45 KPSR 051210
RWRAZ

ARIZONA HOURLY REGIONAL WEATHER ROUNDUP
NATIONAL WEATHER SERVICE PHOENIX AZ
500 AM MST SAT SEP 05 2015

NOTE: FAIR INDICATES FEW OR NO CLOUDS BELOW 12,000 FEET WITH NO
SIGNIFICANT WEATHER AND/OR OBSTRUCTIONS TO VISIBILITY.

AZZ001>003-036-051300-
NORTHWEST ARIZONA

CITY           SKY/WX    TMP DP  RH WIND       PRES   REMARKS
BULLHEAD CITY  CLEAR     82  54  36 SW7       29.79R
KINGMAN        CLEAR     67  55  65 SE8       29.95F
6HR MIN TEMP:  66; 6HR MAX TEMP:  77;

$$

AZZ004>008-015-016-018-051300-
NORTH CENTRAL ARIZONA

CITY           SKY/WX    TMP DP  RH WIND       PRES   REMARKS
GRAND CANYON   PTCLDY    54  51  90 S6        30.16F
6HR MIN TEMP:  54; 6HR MAX TEMP:  61;

WILLIAMS       MOCLDY    55  52  88 S10       30.22F
PRESCOTT       MOCLDY    63  54  72 SE5       30.09S
6HR MIN TEMP:  62; 6HR MAX TEMP:  68;

FLAGSTAFF      MOCLDY    54  53  97 W3        30.19F
6HR MIN TEMP:  53; 6HR MAX TEMP:  55; 6HR PCP:  0.09;

PAYSON         MOCLDY    63  55  77 CALM      30.12R
PAGE           CLEAR     68  51  54 S3        29.99S
6HR MIN TEMP:  68; 6HR MAX TEMP:  74;

$$

AZZ009>014-017-051300-
NORTHEAST ARIZONA

CITY           SKY/WX    TMP DP  RH WIND       PRES   REMARKS
WINSLOW        MOCLDY    62  57  83 E5        30.09R
6HR MIN TEMP:  62; 6HR MAX TEMP:  67;

SAINT JOHNS    MOCLDY    60  56  86 CALM      30.13S
6HR MIN TEMP:  60; 6HR MAX TEMP:  66;

WINDOW ROCK    CLOUDY    59  53  80 CALM      30.20F
6HR MIN TEMP:  59; 6HR MAX TEMP:  61; 6HR PCP: TRACE;

SHOW LOW       CLOUDY    57  54  88 S7        30.20R
$$

AZZ023-051300-
GREATER PHOENIX AREA

CITY           SKY/WX    TMP DP  RH WIND       PRES   REMARKS
PHOENIX        MOCLDY    81  66  60 SE3       29.84S
6HR MIN TEMP:  81; 6HR MAX TEMP:  85;

BUCKEYE        MOCLDY    75  68  78 NE3       29.85R
LUKE AFB       MOCLDY    80  66  63 S2        29.84S
6HR MIN TEMP:  80; 6HR MAX TEMP:  83;

DEER VALLEY    MOCLDY    80  63  55 SE7       29.86S
6HR MIN TEMP:  80; 6HR MAX TEMP:  83;

SCOTTSDALE     MOCLDY    80  64  58 CALM      29.88S
6HR MIN TEMP:  80; 6HR MAX TEMP:  83;

MESA-GATEWAY   PTCLDY    77  64  65 SE3       29.89S
$$

AZZ027-028-051300-
SOUTHWEST MARICOPA COUNTY AND PINAL COUNTY

CITY           SKY/WX    TMP DP  RH WIND       PRES   REMARKS
CASA GRANDE    CLOUDY    75  66  73 CALM      29.86F
6HR MIN TEMP:  75; 6HR MAX TEMP:  79;

GILA BEND      FAIR      77  65  66 S3        29.82S
6HR MIN TEMP:  77; 6HR MAX TEMP:  84; 6HR PCP: TRACE;

$$

AZZ503-504-507>509-051300-
SOUTHEAST ARIZONA

CITY           SKY/WX    TMP DP  RH WIND       PRES   REMARKS
TUCSON         CLOUDY    73  65  75 E7        29.97S
6HR MIN TEMP:  72; 6HR MAX TEMP:  75; 6HR PCP: TRACE;

DAVIS-MONTHAN  CLOUDY    72  65  78 SE6       29.95S
6HR MIN TEMP:  71; 6HR MAX TEMP:  74; 6HR PCP: TRACE;

NOGALES        CLOUDY    66  63  90 CALM      30.03F
6HR MIN TEMP:  64; 6HR MAX TEMP:  67; 6HR PCP: TRACE;

SIERRA VISTA   CLOUDY    64  62  96 W3        30.09F
6HR MIN TEMP:  64; 6HR MAX TEMP:  65; 6HR PCP:  0.01;

DOUGLAS        MOCLDY    65  62  90 NE3       30.06R
6HR MIN TEMP:  65; 6HR MAX TEMP:  67;

SAFFORD        CLOUDY    69  64  84 CALM      29.99R
6HR MIN TEMP:  69; 6HR MAX TEMP:  72;

$$

AZZ020-021-025-026-031-051300-
SOUTHWEST ARIZONA

CITY           SKY/WX    TMP DP  RH WIND       PRES   REMARKS
YUMA           CLEAR     82  72  71 SE9       29.77R
6HR MIN TEMP:  82; 6HR MAX TEMP:  86;

$$

CAZ031-033-041-043-047-048-061-051300-
SOUTHERN CALIFORNIA

CITY           SKY/WX    TMP DP  RH WIND       PRES   REMARKS
DOWNTOWN L.A.  CLEAR     66  58  75 CALM      29.88S
6HR MIN TEMP:  66; 6HR MAX TEMP:  69;

L.A. AIRPORT   MOCLDY    65  60  84 E6        29.88S
6HR MIN TEMP:  65; 6HR MAX TEMP:  69;

SAN DIEGO      MOCLDY    70  57  63 E3        29.89S
6HR MIN TEMP:  69; 6HR MAX TEMP:  72;

BURBANK        CLEAR     65  56  72 SE3       29.89S
6HR MIN TEMP:  63; 6HR MAX TEMP:  69;

ONTARIO        CLEAR     61  56  83 W5        29.89S
6HR MIN TEMP:  60; 6HR MAX TEMP:  66;

RIVERSIDE      CLEAR     61  55  81 CALM      29.89S
6HR MIN TEMP:  61; 6HR MAX TEMP:  67;

PALM SPRINGS   CLEAR     70  52  52 CALM      29.80S
6HR MIN TEMP:  70; 6HR MAX TEMP:  82;

EL CENTRO NAS  CLEAR     76  65  68 N7        29.76S
6HR MIN TEMP:  75; 6HR MAX TEMP:  85;

IMPERIAL       CLEAR     81  70  69 E7        29.74S
6HR MIN TEMP:  79; 6HR MAX TEMP:  88;

BLYTHE         CLEAR     81  72  74 S6        29.78S
6HR MIN TEMP:  81; 6HR MAX TEMP:  87;

NEEDLES        CLEAR     84  60  44 S14       29.79S
6HR MIN TEMP:  84; 6HR MAX TEMP:  91;

$$

NVZ020-UTZ003-051300-
SOUTHERN NEVADA-UTAH

CITY           SKY/WX    TMP DP  RH WIND       PRES   REMARKS
LAS VEGAS      CLEAR     76  36  23 S7        29.80R
6HR MIN TEMP:  75; 6HR MAX TEMP:  85;

SALT LAKE CITY MOCLDY    74  40  29 S24G33    29.84R
6HR MIN TEMP:  74; 6HR MAX TEMP:  78; 6HR PCP: TRACE;

$$

NMZ009-TXZ055-051300-
NEW MEXICO-WEST TEXAS

CITY           SKY/WX    TMP DP  RH WIND       PRES   REMARKS
ALBUQUERQUE    CLOUDY    64  59  83 N6        30.16S
6HR MIN TEMP:  63; 6HR MAX TEMP:  65; 6HR PCP: TRACE;

EL PASO        MOCLDY    76  54  46 N7        30.03R
6HR MIN TEMP:  75; 6HR MAX TEMP:  80;

$$


........................KEY........................
SKY/WX - SKY CONDITION/WEATHER
TMP    - TEMPERATURE IN FAHRENHEIT
DP     - DEW POINT IN FAHRENHEIT
RH     - RELATIVE HUMIDITY IN PERCENT
WIND   - DIRECTION AND SPEED IN MILES PER HOUR (MPH)
VRB    - VARIABLE WIND DIRECTION
PRES   - MEAN SEA LEVEL PRESSURE IN INCHES OF MERCURY
         F - FALLING PRESSURE   R - RISING PRESSURE
         S - STEADY PRESSURE
VSB    - VISIBILITY IN MILES
HX     - HEAT INDEX IN FAHRENHEIT
WCI    - WIND CHILL INDEX IN FAHRENHEIT
TC     - TEMPERATURE IN CELSIUS WHICH IS ALSO KNOWN AS
         TEMPERATURE IN CENTIGRADE
AFB    - AIR FORCE BASE
         LUKE AFB IS LUKE AIR FORCE BASE
         DAVIS-MONTHAN IS DAVIS-MONTHAN AIR FORCE BASE
NAS    - NAVAL AIR STATION
         EL CENTRO NAS IS EL CENTRO NAVAL AIR STATION
N/A    - NOT AVAILABLE



USA.gov is the U.S. government's official web portal to all federal, state and local government web resources and services.